Погода в Кадаре

Россия / Республика Дагестан     42°37′13″N   47°17′18″E
темп.,
°C
ветер,
м/с
пор.,
м/с
влажн.,
%
обл.,
%
осадки,
мм/ч
давл.,
гПа
погр.,
м
25 февраля, чт
чт2500:00−10ююз11580 0.0 104145
03:00−10ююз12510 0.0 103942
06:00−10юз22340 0.0 103828
09:00−7юз111939 0.0 1037132
12:00−1ссз011374 0.0 1035417
15:000ссв111837 0.0 1033679
18:00−3юв00421 0.0 103321
21:00−4юз124110 0.0 103225
26 февраля, пт
пт2600:00−4юз224891 0.0 103078
03:00−4юз114991 0.0 102927
06:00−4юз114788 0.0 102822
09:00−2зюз124094 0.0 1027238
12:00+2зсз2342100 0.0 1026704
15:00+3ссв224494 0.0 1025635
18:00−3всв116311 0.0 102521
21:00−3зюз116521 0.0 102521
27 февраля, сб
сб2700:00−2ююз116971 0.0 102421
03:00−3юз117547 0.0 102321
06:00−3юз11770 0.0 102221
09:000юз11570 0.0 1021243
12:00+3всв11450 0.0 1019841
15:00+4всв32520 0.0 1017808
18:00−1всв11760 0.0 101627
21:00−1ююз11750 0.0 101622
28 февраля, вс
вс2800:00−2юз22720 0.0 101429
03:00−2юз22620 0.0 101336
06:00−3юз22480 0.0 101333
09:00+1ю11380 0.0 1012287
12:00+3св32530 0.0 1012750
15:00−1ссв338713 0.0 1013301
18:00−2ссв2292100 0.2 1015170
21:00−2ссв1195100 1.4 1018131
1 марта, пн
пн100:00−3св1195100 1.5 1020144
03:00−3св1195100 2.3 1021107
06:00−4с1196100 1.0 102298
09:00−3всв1194100 2.3 1024228
12:00−2св2294100 1.4 1024328
15:00−3св3389100 2.6 1024456
18:00−4св229597 1.0 1026198
21:00−6св119598 1.3 102861